STARLINK-33804, 63511

Orbit data source: Space-Track

STARLINK-33804, 63511 is a payload satellite owned by SpaceX/Seattle (US) in LEO that was launched on Mon, 07 Apr 2025 UTC via an FALCON 9 launch vehicle from the Air Force Western Test Range (AFWTR). Payload-class satellites include a variety of spacecraft equipped with specific instruments for various scientific and technological missions. These include communications satellites like Starlink; space stations such as the ISS; scientific satellites like the Hubble; Earth observation satellites from companies like Planet Labs, Umbra, and HawkEye 360; GPS; miniature CubeSats for education and research; and military/defense satellites.

Loading next visibility...
Identifier
63511, 2025-071U
Orbit
LEO
Last TLE update
21 hours ago
Origin
Manufacturer
SpaceX/Seattle
Mission
Operational Commercial Communications
Bus & Motor
STARLINK V2MO, Unknown motor
Mass
575 kg wet, ~530 kg dry
Launch date (UTC)
2025-04-07 (3 months ago)
Launch vehicle
FALCON 9
Launch site
Air Force Western Test Range (AFWTR)
Object type
Payload
Rocket body
Debris
Shape & HBR
Box + 1 Pan, 29 m
Radar Cross Section
41.120 m², Large (>1 m²)

Expand to show TLE details & history

TLE from 21 hours ago
0 STARLINK-33804
1 63511U 25071U   25183.38417482  .00012275  00000-0  42591-3 0  9998
2 63511  53.1582 222.7696 0000994  81.0540 279.0573 15.30196929 14076
Epoch: 2025-07-02T09:13Z
TLE epoch observation values (Epoch: 2025-07-02T09:13:12.704Z)
Latitude
-0.00004°
Longitude
163.80059°
Altitude
476.017 km
Speed
7.629 km/s
True Right ascension
14h 51m 04s
True Declination
0° 00' 00"
Sunlit
Object was in full shadow at epoch
Visualization orbit readout
Latitude
30.21995°
Longitude
-45.98528°
Altitude
476.526 km
Speed
7.632 km/s
Apparent Right ascension
03h 07m 58s
Apparent Declination
-4° 17' 34"
Sunlit
Object is in daylight
Visualization observer readout
Local Sidereal Time
17:58:22
Azimuth
58.502° ENE
Elevation
-37.664°
Doppler factor
1
Orbital elements
Apogee altitude
476.162 km
Perigee altitude
474.8 km
Semi-major axis
6,853.618 km
Eccentricity
0.0001
Inclination
53.1582°
RAAN
222.7696°
Arg. of periapsis
81.054°
True anomaly
Unknown
Mean anomaly
279.0573°
Eccentric anomaly
Unknown
Mean motion
3.82528 °/min
Orbital period
94.11 mins
BSTAR
0.00042591
Loading maneuver chart data...
Loading SW <> Apogee altitude chart data...
Loading historical data...
Loading historical data...
Loading historical data...
Loading historical data...
Loading historical data...
Loading historical data...
Loading historical data...

STARLINK-33804 Visibility forecast

Observer location: undefined°, undefined°

Span
Click to sort rows by Start time (UTC) header in descending order
Start Az.
Max El. time (UTC)
Max El. Az.
Max El.
End time (UTC)
End Az.
4 mins2025-07-03 10:45:44.278Z344.713° N2025-07-03 10:47:44.278Z27.555° NE20.67°2025-07-03 10:49:44.278Z68.757° E
5 mins2025-07-03 12:23:44.278Z297.623° NW2025-07-03 12:25:44.278Z232.132° WSW41.216°2025-07-03 12:28:44.278Z144.922° SSE
6 mins2025-07-04 05:18:44.278Z245.442° WSW2025-07-04 05:21:44.278Z0.509° NNE39.143°2025-07-04 05:24:44.278Z43.666° NE
|